EW8780 Weather Reports


Display with metric or nautical units.
time (UTC)temp
F
wind
direction
speed
MPH
gust
MPH
rain 1hr
in
rain 24hr
in
rain mn
in
humidity
%
barometer
mb
20260904064551 58 254 0.0 1.0 0.00 0.00 0.00 92 1008.4
20260904063050 58 254 0.0 1.0 0.00 0.00 0.00 92 1008.4
20260904061549 58 237 0.0 0.0 0.00 0.00 0.00 92 1008.5
20260904060051 58 237 0.0 1.0 0.00 0.00 0.00 92 1008.4
20260904054548 58 237 0.0 2.0 0.00 0.00 0.00 91 1008.3
20260904053048 58 237 0.0 1.0 0.00 0.00 0.00 91 1008.5
20260904051547 58 237 0.0 1.0 0.00 0.00 0.00 90 1008.6
20260904050048 58 237 0.0 2.0 0.00 0.00 0.00 91 1008.6
20260904044546 57 237 0.0 1.0 0.00 0.00 0.00 92 1008.5
20260904043045 57 237 0.0 2.0 0.00 0.00 0.00 92 1008.5
20260904041544 57 237 0.0 2.0 0.00 0.00 0.00 92 1008.5
20260904040044 57 237 0.0 2.0 0.00 0.00 0.00 92 1008.6
20260904034543 57 237 0.0 2.0 0.00 0.01 0.00 92 1008.5
20260904033043 57 237 0.0 0.0 0.00 0.01 0.00 91 1008.4
20260904031541 58 237 0.0 0.0 0.00 0.01 0.00 90 1008.5
20260904030041 58 237 0.0 1.0 0.00 0.01 0.00 89 1008.4
20260904024540 59 237 0.0 1.0 0.00 0.02 0.00 87 1008.4
20260904023039 60 237 0.0 4.0 0.00 0.02 0.00 84 1008.4
20260904021549 61 251 2.0 4.0 0.00 0.02 0.00 83 1008.5
20260904020039 62 234 1.0 5.0 0.00 0.02 0.00 83 1008.5
20260904014540 63 234 2.0 7.0 0.00 0.08 0.00 81 1008.6
20260904013037 63 227 2.0 6.0 0.00 0.08 0.00 84 1008.5
20260904011548 64 191 1.0 4.0 0.00 0.08 0.00 83 1008.4
20260904010036 64 229 1.0 6.0 0.00 0.08 0.00 83 1008.5
20260904004535 64 200 1.0 5.0 0.00 0.12 0.00 83 1008.6
20260904003034 64 237 2.0 6.0 0.00 0.12 0.00 83 1008.4
20260904001533 64 217 2.0 7.0 0.00 0.12 0.00 81 1008.5
20260904000032 65 227 2.0 7.0 0.00 0.12 0.00 79 1008.5
20260903234530 65 238 3.0 7.0 0.00 0.31 0.00 82 1008.6
20260903233029 66 203 3.0 8.0 0.00 0.31 0.00 81 1008.7
20260903231529 68 216 4.0 9.0 0.00 0.31 0.00 79 1008.8
20260903230035 69 182 5.0 11.0 0.00 0.31 0.00 78 1008.8
20260903224534 67 180 3.0 9.0 0.00 0.52 0.00 79 1008.9
20260903223026 69 229 4.0 10.0 0.00 0.52 0.00 77 1009.0
20260903221525 67 194 3.0 9.0 0.00 0.52 0.00 80 1009.0
20260903220042 66 200 3.0 7.0 0.00 0.52 0.00 81 1009.0
20260903214525 65 193 2.0 5.0 0.00 0.82 0.00 85 1008.9
20260903213026 66 211 2.0 5.0 0.00 0.82 0.00 84 1009.0
20260903211521 66 236 2.0 6.0 0.00 0.82 0.00 83 1009.0
20260903210025 68 236 2.0 7.0 0.00 0.82 0.00 86 1009.1
20260903204518 65 187 2.0 7.0 0.00 1.01 0.00 89 1009.1
20260903203017 64 193 2.0 5.0 0.00 1.01 0.00 92 1009.2
20260903201521 63 221 1.0 4.0 0.00 1.01 0.00 93 1009.1
20260903200010 62 213 1.0 3.0 0.00 1.01 0.00 94 1009.2
20260903194509 61 190 1.0 4.0 0.00 1.18 0.00 94 1009.2
20260903193011 60 221 1.0 5.0 0.00 1.18 0.00 93 1009.3
20260903191509 61 167 2.0 5.0 0.00 1.18 0.00 93 1009.1
20260903190008 61 200 1.0 4.0 0.00 1.18 0.00 94 1009.0
20260903184506 62 238 1.0 4.0 0.00 1.28 0.00 94 1009.0
20260903183006 61 236 1.0 3.0 0.00 1.28 0.00 94 1009.0
20260903181504 61 220 0.0 2.0 0.00 1.28 0.00 95 1009.0
20260903180004 60 218 1.0 3.0 0.00 1.28 0.00 95 1008.9
20260903174504 61 242 1.0 4.0 0.00 1.43 0.00 95 1008.9
20260903173015 61 229 1.0 3.0 0.00 1.43 0.00 95 1008.8
20260903171503 61 225 1.0 4.0 0.00 1.43 0.00 96 1008.8
20260903170002 61 236 1.0 4.0 0.00 1.43 0.00 96 1008.8
20260903164501 61 273 0.0 2.0 0.00 1.60 0.00 96 1008.9
20260903163101 60 277 0.0 1.0 0.00 1.60 0.00 96 1008.9
20260903161558 60 277 0.0 2.0 0.00 1.60 0.00 96 1009.0
20260903160058 60 278 0.0 2.0 0.00 1.60 0.00 96 1009.1
20260903154551 60 240 0.0 0.0 0.00 1.73 0.00 97 1009.3
20260903153048 59 240 0.0 0.0 0.00 1.73 0.00 96 1009.3
20260903151547 59 240 0.0 1.0 0.00 1.73 0.00 96 1009.2
20260903150054 58 244 0.0 2.0 0.00 1.73 0.00 96 1009.3
20260903144545 58 242 0.0 2.0 0.00 1.76 0.00 96 1009.2
20260903143052 58 242 1.0 4.0 0.00 1.76 0.00 96 1009.4
20260903141542 58 216 0.0 2.0 0.00 1.76 0.00 96 1009.3
20260903140041 58 205 0.0 1.0 0.00 1.76 0.00 96 1009.3
20260903134549 58 205 0.0 2.0 0.00 1.76 0.00 96 1009.1
20260903133040 58 205 0.0 0.0 0.00 1.76 0.00 96 1009.1
20260903131538 58 205 0.0 3.0 0.00 1.76 0.00 96 1009.1
20260903130039 58 204 0.0 2.0 0.00 1.76 0.00 96 1009.2
20260903124537 58 204 0.0 1.0 0.00 1.76 0.00 96 1009.1
20260903123036 58 204 0.0 0.0 0.00 1.76 0.00 96 1009.1
20260903121535 58 204 0.0 1.0 0.00 1.76 0.00 96 1009.3
20260903120035 58 204 0.0 0.0 0.00 1.76 0.00 96 1009.4
20260903114532 58 204 0.0 0.0 0.00 1.76 0.00 96 1009.5
20260903113033 58 204 0.0 2.0 0.00 1.76 0.00 96 1009.5
20260903111527 58 204 0.0 1.0 0.00 1.76 0.00 96 1009.7
20260903110026 58 160 0.0 5.0 0.00 1.76 0.00 96 1009.8
20260903104526 58 184 0.0 3.0 0.00 1.76 0.00 96 1009.9
20260903103023 58 181 0.0 1.0 0.00 1.76 0.00 96 1009.9
20260903101521 58 181 0.0 2.0 0.00 1.76 0.00 96 1010.0
20260903100020 58 181 0.0 3.0 0.00 1.76 0.00 96 1010.1
20260903094520 58 238 1.0 3.0 0.00 1.76 0.00 96 1010.1
20260903093023 58 238 0.0 1.0 0.00 1.76 0.00 96 1010.2
20260903091515 58 238 0.0 2.0 0.00 1.76 0.00 96 1010.2
20260903090015 58 238 0.0 2.0 0.00 1.76 0.00 96 1010.3
20260903084516 58 238 0.0 0.0 0.00 1.76 0.00 96 1010.4
20260903083012 58 238 0.0 1.0 0.00 1.76 0.00 96 1010.2
20260903081529 58 238 0.0 1.0 0.00 1.76 0.00 96 1010.2
20260903080009 58 238 0.0 1.0 0.00 1.76 0.00 96 1010.1
20260903074509 58 238 0.0 1.0 0.00 1.76 0.00 96 1010.2
20260903073008 58 238 0.0 4.0 0.00 1.76 0.00 96 1010.2
20260903071505 58 223 1.0 3.0 0.00 1.76 0.00 95 1010.2
20260903070003 58 257 1.0 3.0 0.00 1.76 0.00 95 1010.2